Location: Asheville, NC
(35.6000°N, 82.5500°W)
Time: 20:05:22

XW-2A - Pass Details

Date: 13 March 2018
Orbit: 436 x 455 km, 97.4° (Epoch: 17 March)

Event Time Altitude Azimuth Distance (km) Brightness Sun altitude
Rises 21:44:14 0° 210° (SSW) 2,398 ? -26.5°
Reaches altitude 10° 21:47:21 10° 243° (WSW) 1,537 ? -27.1°
Maximum altitude 21:48:38 12° 267° (W) 1,431 ? -27.4°
Drops below altitude 10° 21:49:56 10° 290° (WNW) 1,543 ? -27.6°
Sets 21:53:05 0° 323° (NW) 2,421 ? -28.3°
